Regional Weather Roundup
Issued by NWS Wakefield, VA

Home | Current Version | Previous Version | Text Only | Print | Product List | Glossary Off
Versions: 1 2 3 4 5 6 7 8 9 10 11 12 13 14 15 16 17 18 19 20 21 22 23 24 25 26 27 28 29 30 31 32 33 34 35 36 37 38 39 40 41 42 43 44 45 46 47 48 49 50

000
ASUS41 KAKQ 072115
RWRAKQ

REGIONAL WEATHER ROUNDUP
NATIONAL WEATHER SERVICE WAKEFIELD VA
400 PM EST WED DEC 07 2016

Note: "fair" indicates few or no clouds below 12,000 feet with no
significant weather and/or obstructions to visibility. * = Denotes
station may not report precipitation (e.g., rain,snow,etc.),
thunder or fog.

VAZ042-051-052>054-056-072200-
NORTHERN VIRGINIA

CITY           SKY/WX    TMP DP  RH WIND       PRES   REMARKS
WASH NATIONAL  PTCLDY    50  32  50 N8        30.06S
DULLES         PTCLDY    49  29  46 CALM      30.05S
FORT BELVOIR   CLEAR     51  29  44 NW6       30.05S
QUANTICO       PTCLDY    52  30  43 N7        30.07R
FREDERICKSBRG* CLEAR     53  33  47 NW6       30.05R
STAFFORD*      CLEAR     49  33  52 N5        30.09R
WARRENTON      CLEAR     52  26  36 N3        30.04S
CULPEPER*      CLEAR     52  33  49 CALM      30.06R
MANASSAS*      CLEAR    N/A N/A N/A NW10      30.06S
LEESBURG*      CLEAR     50  34  53 NW6       30.06R
WINCHESTER     CLEAR     46  25  42 W8        30.04R
FRONT ROYAL*   FAIR      48  30  49 W3        30.03R
LURAY*         FAIR      50  32  50 CALM      30.04R
$$

VAZ048-049-060>072-079>083-072200-
CENTRAL AND SOUTH CENTRAL VIRGINIA

CITY           SKY/WX    TMP DP  RH WIND       PRES   REMARKS
RICHMOND       PTCLDY    54  36  50 N6        30.04R
CHESTERFIELD*  FAIR      55  28  35 N5        30.05R
PETERSBURG*    CLEAR     55  37  50 N3        30.04R
HANOVER        CLEAR     54  33  45 N3        30.06R
TAPPAHANNOCK*  CLEAR     53  30  42 N7        30.06R
QUINTON*       FAIR      54  38  54 N8        30.04R
CHARLOTTSVILLE CLEAR     55  31  39 CALM      30.02S
GORDONSVILLE*  FAIR      54  34  46 CALM      30.03S
ORANGE*          N/A     52  37  58 CALM      30.06R
LOUISA*        CLEAR     55  41  58 CALM      30.03R
BUMPASS*       FAIR      52  39  61 NE3       30.04R
FARMVILLE*     CLEAR     56  43  61 CALM      30.01S
CREWE*         FAIR      56  40  56 CALM      30.02S
FORT PICKETT*  FAIR      55  34  44 CALM      30.03R
CHASE CITY*    FAIR      55  36  49 NW3       30.03S
CLARKSVILLE*   FAIR      54  37  54 N3        30.02S
SOUTH HILL*    CLEAR     55  41  58 CALM      30.09R
LAWRENCEVILLE* FAIR      56  41  57 CALM      30.03R
EMPORIA*       PTCLDY    54  41  62 N3        30.05R
$$

VAZ088>098-072200-
SOUTHEAST VIRGINIA

CITY           SKY/WX    TMP DP  RH WIND       PRES   REMARKS
NORFOLK        CLEAR     52  41  66 N8        30.04R
VIRGINIA BEACH PTCLDY    52  41  66 N10       30.03R
NORFOLK NAVAL  PTCLDY    53  40  61 N8        30.06R
WEST POINT*    CLEAR     54  37  52 CALM      30.06R
SALUDA*        FAIR      51  40  66 NW5       30.04R
NEWPORT NEWS   CLEAR     54  38  54 N6        30.04R
LANGLEY AFB    PTCLDY    52  40  62 N9        30.03R
FORT EUSTIS    CLEAR     58  39  48 CALM      30.01R
WILLIAMSBURG*  CLEAR     57  41  54 CALM      30.05R
HR EXEC AP*    FAIR      54  39  58 N5        30.03R
FRANKLIN*      CLEAR     54  40  58 N5        30.04R
US460-WAKEFLD  CLEAR     55  41  59 CALM      30.04R
$$

VAZ020-022-025-037-045-072200-
WEST CENTRAL AND SOUTHWEST VIRGINIA

CITY           SKY/WX    TMP DP  RH WIND       PRES   REMARKS
STAUNTON*      CLEAR     49  33  54 CALM      30.05R
WAYNESBORO*    FAIR      50  27  40 CALM      30.02S
HOT SPRINGS VA CLEAR     41  21  45 W8        29.98R
LYNCHBURG      CLEAR     55  30  38 CALM      30.03R
DANVILLE       CLEAR     57  34  41 N3        30.02S
SOUTH BOSTON*  FAIR      57  37  47 N3        30.03R
MARTINSVILLE   CLEAR     56  28  35 CALM      30.04S
ROANOKE        CLEAR     54  29  38 NW8       30.05R
BLACKSBURG     CLEAR     48  32  52 W3        30.06R
DUBLIN*        SUNNY     49  31  50 N6        30.04R
MARION*        SUNNY     50  27  40 NW6       30.04R
HILLSVILLE*    MOSUNNY   47  31  53 CALM      30.01R
RICHLANDS*     FAIR      43  10  25 NE6       30.04R
WISE*          SUNNY     41  30  65 NE5       30.05S
ABINGDON*      SUNNY     52  32  46 E3        30.03R
$$

MDZ021>025-VAZ099-100-072200-
SOUTHERN MARYLAND AND THE DELMARVA PENINSULA

CITY           SKY/WX    TMP DP  RH WIND       PRES   REMARKS
PATUXENT RIVER PTCLDY    50  36  58 NW12      30.05R
BAY BRIDGE APT CLEAR     50  37  62 NW8       30.04R
LEONARDTOWN    CLEAR     50  32  50 NW7       30.06R
DOVER          CLOUDY    47  40  77 N7        30.03R
GEORGETOWN     CLOUDY    48  40  73 NW3       30.05R
EASTON         NOT AVBL
CAMBRIDGE      MOCLDY    48  37  66 NW5       30.04R
SALISBURY      CLOUDY    47  41  80 NW8       30.05R
OCEAN CITY     CLOUDY    48  41  76 N7        30.04R
WALLOPS ISLAND CLOUDY    49  42  77 NW5       30.05R
ACCOMACK*      PTCLDY    49  41  72 N7        30.04R
$$

NCZ012>017-030>032-072200-
NORTH CENTRAL AND EASTERN NORTH CAROLINA

CITY           SKY/WX    TMP DP  RH WIND       PRES   REMARKS
ROANOKE RAPIDS FAIR      54  43  66 CALM      30.03R
RALEIGH        PTCLDY    60  40  47 SW5       30.03R
ELIZABETH CITY CLEAR     54  42  64 N7        30.04R
AHOSKIE*       CLEAR     53  42  66 CALM      30.04R
EDENTON*       CLEAR     58  45  61 CALM      30.04R
CURRITUCK*     CLEAR     54  42  65 N8        30.05R
KILL DEVIL HLS CLEAR     52  46  82 N5        30.03R
MANTEO         MOCLDY    52  44  72 NE9       30.05R
CAPE HATTERAS  NOT AVBL
TARBORO*       NOT AVBL
GOLDSBORO      CLEAR     60  44  54 SE3       30.02R
WASHINGTON     CLEAR     57  41  54 N3        30.04R
GREENVILLE     CLEAR     57  43  58 CALM      30.06R
NEW BERN       CLEAR     58  44  60 CALM      30.04S
WILMINGTON     CLEAR     61  46  57 SW3       30.03R
$$

VAZ048-072200-
ELSEWHERE

CITY           SKY/WX    TMP DP  RH WIND       PRES   REMARKS
HARRISBURG PA  CLOUDY    46  32  58 W3        30.02R
BALTIMORE      PTCLDY    48  31  51 W10       30.05R
ANNAPOLIS      CLEAR     52  32  46 NW6       30.04R
ANDREWS AFB    CLEAR     48  29  48 NW8       30.04S
PHILADELPHIA   PTCLDY    47  35  63 W9        30.03R
HENDERSON NC   CLEAR     54  37  52 CALM      30.03R
GREENSBORO     PTSUNNY   57  32  38 CALM      30.01R
ROCKY MOUNT    CLEAR     58  44  60 E3        30.04R
$$

VAZ100-072200-
MARINE

STATION/POSITION TIME  TEMP    WIND        PRES    WAVE   SWELL
                       AIR SEA DIR/SP/G            HT/PER HT/PER
                 (UTC) (F)     (DEG/KT/KT) (MB)    (FT/S) (FT/S)
BRANDYWINE LGT   2042   46     350/ 13/ 15   N/A
CAPE MAY NJ      2042   46 49  330/  9/ 13 1016.4R
LEWES DE         2042   47 48  340/ 11/ 12 1017.0R
OCEAN-CITY-INLET 2048      51  360/  7/  9 1017.4R
WACHAPREAGUE VA  2048   49 50  330/  5/ 10 1017.3R
THOMAS POINT MD  2100   50 49  320/  8/  9   N/A
GOOSES REEF MD   2100   51 50  340/  8/ 12 1018.3    1/ 2
COVE POINT MD    2048   49     350/ 11/ 13 1018.1R
SOLOMONS ISLAND  2042   50 51  310/  8/ 11   N/A
BISHOPS HEAD MD  2048   49 48  360/  5/  8 1017.5R
PINEY POINT MD   2036          310/ 12/ 13   N/A
POTOMAC MD       2100   50 50  300/ 12/ 14 1016.7    1/ 2
CAMBRIDGE MD     2048   49 47  330/  5/  6 1016.6R
LEWISETTA VA     2048   50 49  320/  8/ 10 1017.2R
RAPPAHANNOCK LGT 2036           10/ 15/ 16 1017.7R
STINGRAY PT      2050   50      30/  8/ 10 1017.6R
YORK RVR RNG VA  2048   52      30/  8/  9 1016.7R
YORKTOWN VA      2048   53 52  320/  9/ 10 1016.8R
JAMESTOWN VA     2100   54 52  320/  6/  8   N/A     0
DOMINION TERM VA 2048   54      30/  6/  9 1017.1R
KIPTOPEKE VA     2036      52   30/  9/ 11   N/A
CHES BAY BRIDGE  2036   51 53   10/ 11/ 12 1016.9R
CAPE HENRY VA    2036   50     350/ 14/ 17   N/A
WILLOUBY STN VA  2036   52      20/ 10/ 11 1017.8R
S CRANEY ISL VA  2036   53      20/  6/  8 1016.7R
CAPE HENRY BUOY  2042      55                N/A     6/10   2/11
1ST LANDING BUOY 2100   51 53              1017.3    3/ 4
CAPE CHARLES BUO 2056      54                N/A     5/10   2/11
OFFSHORE WE BUOY 2051      56                N/A     7/10   2/11
64NM E OF VA BCH 2050   53 59  350/ 14/ 17 1016.0R   8/10   7/10
DUCK PIER NC     2036   51 54   10/ 18/ 20 1016.4R
44100 DUCK FRF   2035      56                N/A     7/10   2/11
OREGON INLET NC  2036   51 55  350/  9/ 12 1017.0R
HATTERAS NC      2036   53 59  360/ 10/ 12 1016.8R
DIAMOND SHLS NC  2050   56 76  360/ 14/ 17 1016.9R   6/11   5/11
CAPE LOOKOUT NC  2100   55      20/  7/  8 1016.9R
$$



USA.gov is the U.S. government's official web portal to all federal, state and local government web resources and services.